Location: Biltmore Gardens
(41.6070°N, 83.4666°W)
Time: 05:05:56
(UTC+00:00)

A-11 Canister half - Pass Details

Date: 26 April 2021
Orbit: 1526 x 1683 km, 47.3° (Epoch: 11 May)

Event Time Altitude Azimuth Distance (km) Brightness Sun altitude
Rises 03:47:52 0° 290° (WNW) 4,938 12.3 -29.8°
Reaches altitude 10° 03:52:40 10° 271° (W) 3,937 11.4 -30.3°
Maximum altitude 03:58:10 16° 237° (WSW) 3,433 10.7 -30.7°
Enters shadow 04:00:33 15° 221° (SW) 3,518 10.6 -30.9°
